Regional Weather Roundup
Issued by NWS

Home | Current Version | Previous Version | Graphics & Text | Print | Product List | Glossary On
Versions: 1 2 3 4 5 6 7 8 9 10 11 12 13 14 15 16 17 18 19 20 21 22 23 24 25 26 27 28 29 30 31 32 33 34 35 36 37 38 39 40 41 42 43 44 45 46 47 48 49 50
000
ASUS43 KOAX 291010
RWRNE

WEATHER ROUNDUP FOR NEBRASKA
NATIONAL WEATHER SERVICE OMAHA NE
400 AM CST THU JAN 29 2015

NOTES: SATELLITE DATA IS BEING USED TO AUGMENT CLOUD COVER ABOVE
       12000 FEET.
       "FAIR" INDICATES FEW OR NO CLOUDS BELOW 12,000 FEET WITH NO
       SIGNIFICANT WEATHER AND/OR OBSTRUCTIONS TO VISIBILITY.

  * THESE STATIONS DO NOT REPORT WEATHER SUCH AS RAIN...SNOW OR FOG.

NEZ001>004-019>022-054>056-291100-
NEBRASKA PANHANDLE

CITY           SKY/WX    TMP DP  RH WIND       PRES   REMARKS
SCOTTSBLUFF    PTCLDY    34  25  69 W13       30.39R WCI  25
ALLIANCE       CLEAR     29  26  89 N14       30.37R WCI  18
CHADRON        MOCLDY    25  22  88 SW3       30.42R
KIMBALL        CLOUDY    34  24  66 N15       30.35S WCI  24
SIDNEY         PTCLDY    28  25  88 N9        30.35F WCI  19
$$

NEZ057>060-069>072-079>082-291100-
SOUTHWEST NEBRASKA

CITY           SKY/WX    TMP DP  RH WIND       PRES   REMARKS
NORTH PLATTE   CLEAR     32  25  75 NW12      30.33R WCI  23
IMPERIAL       CLEAR     30  24  78 NW12      30.34R WCI  20
LEXINGTON      PTCLDY    35  27  70 N25G32    30.30R WCI  23
MCCOOK         CLEAR     33  27  78 N12       30.32R WCI  24
OGALLALA       CLEAR     28  26  91 NW7       30.36R WCI  21
$$

NEZ005>010-023>029-035>040-094-291100-
NORTH CENTRAL NEBRASKA

CITY           SKY/WX    TMP DP  RH WIND       PRES   REMARKS
VALENTINE      CLOUDY    35  24  64 NW22G31   30.33R WCI  23
AINSWORTH      CLOUDY    34  25  69 NW26G36   30.30R WCI  21
BROKEN BOW     MOCLDY    36  25  64 N24G38    30.27R WCI  24
O`NEILL        CLOUDY    36  31  81 NW24G30   30.25R WCI  24
ORD            CLOUDY    37  28  70 N25G32    30.24R WCI  25
THEDFORD       CLOUDY    36  26  68 NW22G31   30.31S WCI  25
$$

NEZ041-046>049-061>064-073>077-083>087-291100-
SOUTH CENTRAL NEBRASKA

CITY           SKY/WX    TMP DP  RH WIND       PRES   REMARKS
GRAND ISLAND   CLOUDY    37  28  70 NW23G32   30.25R WCI  26
AURORA         CLOUDY    37  29  72 NW25G35   30.22R WCI  26
HASTINGS       MOCLDY    37  27  67 N25G40    30.23R WCI  25
HEBRON         CLOUDY    39  29  68 N17G30    30.22R WCI  29
HOLDREGE       MOCLDY    37  27  67 N17G25    30.27R WCI  27
KEARNEY *      CLEAR     36  27  69 NW16      30.27R WCI  26
YORK           CLOUDY    37  30  75 N23G37    30.19R WCI  26
$$

NEZ011>018-030>034-042>045-291100-
NORTHEAST NEBRASKA

CITY           SKY/WX    TMP DP  RH WIND       PRES   REMARKS
NORFOLK        CLOUDY    36  29  75 NW26G35   30.17R WCI  24
ALBION         CLOUDY    37  28  72 NW17G30   30.21R WCI  27
BLAIR          CLOUDY    36  29  74 NW22G32   30.12R WCI  25
COLUMBUS *     CLOUDY    37  27  65 NW20G26   30.20R WCI  27
FREMONT        CLOUDY    37  30  77 NW16G23   30.16R WCI  27
TEKAMAH        CLOUDY    36  29  75 NW23      30.14R WCI  24
WAYNE          CLOUDY    35  29  78 N29G37    30.17R WCI  22
$$

NEZ050>053-065>068-078-088>093-291100-
SOUTHEAST NEBRASKA

CITY           SKY/WX    TMP DP  RH WIND       PRES   REMARKS
LINCOLN        CLOUDY    38  28  67 NW20G32   30.19R WCI  28
OMAHA EPPLEY   LGT RAIN  35  30  82 NW28G37   30.12R WCI  22
BEATRICE       CLOUDY    37  29  73 N25G33    30.18R WCI  26
FALLS CITY     CLOUDY    38  29  70 NW14G33   30.12R WCI  30
NEBRASKA CITY  CLOUDY    36  26  68 N29G39    30.12R WCI  23
PLATTSMOUTH    CLOUDY    36  27  71 NW24G40   30.11R WCI  24
$$

NEZ044-045-051>053-067-291100-
OMAHA AREA

CITY           SKY/WX    TMP DP  RH WIND       PRES   REMARKS
OMAHA EPPLEY   LGT RAIN  35  30  82 NW28G37   30.12R WCI  22
BLAIR          CLOUDY    36  29  74 NW22G32   30.12R WCI  25
FREMONT        CLOUDY    37  30  77 NW16G23   30.16R WCI  27
MILLARD        CLOUDY    37  30  77 NW13G26   30.15R WCI  28
OFFUTT AFB     CLOUDY    36  28  75 NW26G40   30.12R WCI  23
PLATTSMOUTH    CLOUDY    36  27  71 NW24G40   30.11R WCI  24
WAHOO          CLOUDY    37  28  72 NW21G29   30.16R WCI  26
$$



USA.gov is the U.S. government's official web portal to all federal, state and local government web resources and services.